Wind_Speed
23 24 25 25 24 23 26 26 23 21 20 18 16 17 16 17 19 23 25 28 31 25 18 26 19 22 24 22 23 26 27 27 27 27 27 26 25 26 28 28 27 28 28 28 29 30 29 31 31
25 25 26 26 25 25 29 28 25 26 22 21 20 16 17 19 22 26 31 33 32 28 23 27 19 21 25 24 24 26 27 27 27 27 26 25 25 25 25 27 28 28 30 30 32 32 30 28 26
27 28 27 27 26 26 29 28 25 25 24 22 24 21 17 17 20 25 30 36 36 34 29 29 24 20 26 26 25 31 31 28 26 27 26 26 25 25 24 25 26 28 29 30 29 29 27 25 24
31 31 28 27 25 27 31 29 28 27 27 27 27 24 17 19 25 31 35 32 29 30 26 29 26 18 23 28 29 32 34 30 28 27 29 27 26 25 25 24 24 25 27 27 28 29 28 27 27
33 35 32 29 28 28 33 33 34 32 31 31 31 28 25 29 32 32 33 25 24 23 25 24 25 22 23 29 30 31 35 33 28 29 31 30 29 28 27 28 28 27 26 24 24 27 27 26 26
41 36 36 34 31 33 35 35 37 37 35 35 34 33 34 34 32 28 33 35 33 30 29 25 24 25 26 33 26 31 33 36 32 30 32 32 31 32 32 32 32 31 29 27 25 25 26 24 23
43 41 39 37 35 36 39 38 39 43 40 42 40 39 40 40 33 32 35 35 33 33 29 27 26 26 26 34 32 32 35 35 32 31 33 35 31 32 34 33 32 32 29 29 26 25 25 24 23
46 46 43 40 37 40 39 39 42 44 45 44 43 40 40 41 44 41 38 33 36 33 30 31 30 27 33 34 39 34 31 34 33 31 34 34 32 32 34 34 33 33 30 29 28 26 27 24 23
49 52 48 42 39 38 44 41 44 49 48 47 47 45 41 44 43 37 32 31 34 32 36 37 37 39 38 40 41 43 30 29 32 32 32 33 33 32 34 35 34 35 32 30 29 27 28 28 26
54 56 50 42 39 36 38 45 50 47 48 49 49 44 42 40 38 31 30 36 35 35 36 40 41 40 43 45 46 50 41 29 31 32 30 31 32 30 33 35 36 36 34 32 30 30 30 32 32
56 59 49 46 45 45 44 50 45 49 54 50 46 45 41 41 34 35 38 39 37 37 36 39 41 43 45 48 48 52 46 39 33 30 29 30 33 33 32 36 37 38 35 34 31 31 31 34 34
60 60 55 47 50 48 48 50 54 54 50 45 45 43 42 38 39 38 40 42 39 37 37 42 44 47 50 53 54 55 50 35 33 30 32 33 34 37 33 35 36 37 37 35 32 32 34 36 37
62 62 60 53 50 49 51 53 57 60 55 48 44 43 44 46 46 45 41 46 40 38 38 44 47 49 52 55 56 55 45 34 34 33 36 36 35 36 34 34 36 34 36 35 34 35 36 38 39
63 62 63 63 59 57 58 56 58 60 50 49 52 48 51 51 44 44 42 42 42 40 43 49 48 53 52 53 53 49 39 33 34 35 37 36 35 35 34 34 35 35 38 41 36 37 39 40 41
76 71 71 66 64 63 63 64 64 56 54 54 52 52 47 43 44 43 42 42 42 45 48 47 48 57 53 51 49 44 38 34 37 37 39 37 36 34 35 31 34 36 38 45 34 38 41 44 40
68 75 81 74 69 65 63 66 59 55 57 55 50 49 50 48 45 43 44 44 43 48 49 48 53 52 48 48 48 39 36 34 32 35 34 35 36 36 34 33 34 36 38 37 38 40 43 43 38
70 73 68 77 73 72 74 65 61 58 60 57 53 52 53 52 48 45 43 44 49 50 50 51 49 46 45 47 47 42 38 33 27 27 31 34 35 35 36 36 35 38 39 41 41 41 40 39 39
63 67 69 67 76 80 76 62 61 56 61 56 54 53 50 47 47 48 49 50 50 49 46 44 42 42 43 46 45 42 38 32 27 30 33 32 32 36 38 37 35 38 40 38 39 38 38 37 35
66 66 65 68 68 68 69 70 64 62 57 54 48 45 45 43 45 45 45 47 46 45 41 39 39 41 44 44 43 41 33 28 28 32 31 29 33 35 37 37 37 38 37 37 36 35 31 29 28
69 69 66 64 64 65 63 65 63 61 56 49 47 44 44 43 41 41 40 40 42 40 40 38 39 42 43 41 40 33 30 28 30 30 29 29 33 37 35 35 36 34 34 33 32 31 30 28 27
73 71 66 65 64 59 58 63 56 51 51 45 43 41 37 36 38 37 37 37 39 40 39 37 40 43 40 39 35 32 32 31 27 26 27 30 34 34 32 30 29 30 30 30 30 30 29 28 28
77 72 67 66 63 60 57 64 55 44 42 41 38 34 31 34 34 33 34 38 40 37 33 37 38 36 37 37 32 27 23 21 22 25 26 32 31 30 25 24 27 28 28 28 27 26 26 27 28
73 72 69 68 64 61 58 62 49 41 41 35 30 31 34 34 33 35 38 38 34 29 34 38 33 33 37 32 23 19 18 19 20 24 27 29 28 23 23 25 27 26 25 25 23 26 25 23 22
67 68 65 67 66 69 55 58 46 36 34 32 34 33 33 34 34 34 31 27 30 35 33 32 33 34 32 22 19 18 18 19 21 23 25 24 21 21 23 26 25 22 21 21 23 23 20 19 17
63 67 65 65 68 59 56 57 33 27 34 37 35 38 33 33 29 26 24 29 27 28 29 34 34 31 22 19 18 18 18 19 22 22 20 20 19 22 25 23 21 18 19 19 23 19 19 19 14
50 59 63 69 66 58 56 49 33 34 28 12 30 34 33 27 26 24 25 27 27 25 29 29 25 19 18 16 18 17 18 21 21 17 17 18 21 23 21 19 17 16 15 17 16 15 19 15 12
43 49 52 53 59 60 57 43 38 38 35 26 8 17 24 20 22 22 25 23 21 24 20 19 16 17 15 16 16 17 19 19 14 15 16 20 19 19 17 15 15 13 13 16 13 16 15 14 11
35 43 46 51 54 55 53 47 44 42 36 36 36 21 22 23 23 25 22 16 17 16 12 12 13 15 13 14 16 17 15 13 14 16 18 16 16 15 15 13 12 11 12 15 11 14 14 14 10
24 39 45 46 49 53 51 51 50 46 39 36 34 23 21 23 24 21 19 15 14 12 12 11 13 11 12 15 15 14 11 13 15 16 15 14 12 12 11 10 10 9 12 13 12 14 14 11 10
28 27 40 50 51 52 52 53 53 46 42 32 31 23 25 24 19 18 16 15 14 13 12 12 12 11 13 13 12 9 12 16 15 12 12 11 10 10 10 8 8 8 11 12 14 16 13 11 13
Wind_Direction
227 217 213 216 214 215 210 220 217 223 225 243 258 278 287 298 294 294 306 304 306 309 314 330 336 339 356 357 349 343 342 340 338 332 327 323 320 317 317 316 311 308 307 305 302 299 296 293 288
223 218 213 213 216 214 220 227 220 227 226 240 248 262 283 297 306 303 309 308 299 300 293 320 329 331 349 350 348 341 334 332 330 326 320 315 313 310 312 311 306 306 306 306 304 302 300 295 292
221 221 217 217 217 216 223 226 231 241 245 251 262 268 274 288 292 299 295 292 291 291 286 303 313 328 341 340 334 332 327 321 324 324 315 311 306 304 304 309 301 299 303 307 305 301 298 296 293
224 222 222 219 219 211 224 228 233 236 248 252 259 268 262 272 280 284 293 288 280 278 283 295 309 307 337 338 329 329 330 329 326 321 314 309 306 304 304 307 305 301 305 309 305 303 300 297 296
238 225 227 234 214 216 225 231 234 236 239 249 258 259 265 271 277 286 288 289 282 273 293 310 317 304 315 334 324 328 331 327 327 322 315 314 310 310 312 313 315 310 309 309 302 301 298 296 295
236 234 231 226 211 213 228 230 237 240 240 246 249 257 264 271 276 278 278 274 274 268 297 312 307 301 301 322 320 328 330 323 324 319 315 314 320 318 315 314 317 315 312 312 308 304 301 297 295
237 234 233 225 214 215 228 230 236 240 245 255 251 254 263 274 270 275 281 279 284 290 297 305 304 293 298 313 319 325 328 319 316 313 313 311 317 314 310 309 314 313 310 311 309 304 303 300 294
230 233 231 224 221 222 224 229 233 244 251 252 250 252 265 273 281 287 295 301 305 298 291 297 303 302 303 312 316 318 319 308 304 301 306 306 309 311 306 306 312 312 309 308 306 306 305 296 295
232 234 231 225 229 220 224 231 236 247 251 255 259 261 269 274 277 285 298 298 299 297 304 307 314 313 310 312 313 312 312 292 289 290 296 299 304 311 308 306 309 309 304 304 302 303 306 301 292
235 236 234 231 228 221 219 226 238 244 250 254 260 265 273 271 273 282 292 297 294 296 298 309 310 310 311 311 310 310 315 300 286 287 288 290 300 306 306 303 305 304 300 302 299 298 304 305 296
238 238 238 234 230 225 218 218 225 234 240 250 261 269 269 267 279 288 292 289 292 292 295 301 303 305 304 305 306 306 311 308 291 292 283 291 299 303 302 299 300 300 296 298 298 299 305 308 309
242 239 238 233 234 232 233 234 234 238 243 248 258 261 261 272 282 291 294 291 291 291 294 296 297 296 297 298 300 302 304 297 290 287 283 289 297 299 298 295 296 296 296 296 297 302 307 311 313
248 245 240 235 234 239 242 241 243 245 243 243 252 258 260 275 283 288 284 286 290 291 287 285 287 290 291 294 299 296 301 283 286 286 282 286 292 299 292 287 291 292 293 294 298 303 306 306 309
242 248 247 243 232 241 246 242 244 246 251 251 250 253 260 268 281 276 272 279 281 281 277 277 285 287 290 293 290 294 292 275 278 280 284 293 293 299 286 287 290 289 289 288 296 303 303 304 305
236 240 244 245 244 246 252 252 246 258 263 264 264 264 264 267 272 270 270 268 272 273 274 281 283 283 287 286 285 289 285 272 275 286 286 293 294 296 286 290 289 289 291 289 298 300 302 302 299
243 242 243 244 245 245 245 250 251 259 260 261 266 264 264 267 268 262 264 267 271 272 276 278 275 275 281 279 282 283 289 280 281 287 292 288 293 294 294 291 292 292 293 308 301 299 300 298 299
244 246 252 245 243 248 250 255 254 256 257 256 254 259 265 262 259 258 263 263 265 269 273 271 271 275 275 277 281 286 288 284 281 286 291 289 292 293 291 291 294 297 299 301 300 299 296 297 296
253 251 249 249 243 247 251 253 259 255 255 255 254 258 261 259 255 253 257 260 264 265 271 270 270 273 275 276 278 281 285 285 279 285 288 284 286 286 291 294 297 297 298 297 299 298 300 298 294
246 247 246 245 247 247 251 255 255 257 256 256 258 260 261 263 258 259 259 258 259 263 260 263 268 271 272 275 276 280 283 283 276 279 280 277 276 284 290 290 293 297 294 299 299 301 301 300 296
242 242 244 245 246 250 251 254 255 255 255 255 257 255 256 259 257 255 253 252 254 256 259 263 267 267 269 273 277 280 281 271 266 274 277 271 276 285 285 288 290 288 295 298 300 303 302 299 303
238 240 240 242 244 246 249 250 248 248 252 255 256 259 257 258 259 258 248 244 242 247 254 262 264 266 272 275 277 283 278 266 271 271 271 274 279 283 288 288 285 292 298 300 301 303 302 304 303
234 237 239 240 241 244 247 250 246 246 249 253 255 256 256 254 255 249 243 242 245 250 261 261 262 269 278 279 285 281 282 278 266 267 271 276 282 288 288 288 291 297 299 299 301 309 304 295 291
233 233 234 238 240 240 240 249 239 245 247 249 257 252 248 248 248 238 238 245 254 261 251 255 264 273 277 284 278 274 270 264 267 273 273 281 288 291 293 295 296 295 295 295 301 301 300 293 293
228 230 232 234 236 238 239 246 242 244 245 244 243 248 250 249 244 241 248 253 252 247 257 263 265 274 279 273 268 267 262 270 274 276 282 286 288 290 293 294 292 294 292 295 300 302 303 301 306
225 225 226 230 233 234 237 241 243 242 245 236 235 237 242 248 244 243 243 243 251 257 257 258 271 273 267 259 264 260 270 279 278 281 283 285 289 294 294 285 289 291 291 296 294 308 307 296 306
228 226 225 229 231 229 233 234 229 229 239 256 232 232 238 245 241 237 233 238 250 255 259 270 266 262 248 255 259 269 278 278 279 281 284 291 294 292 284 287 289 284 288 298 300 320 328 309 309
223 226 226 228 230 226 228 225 224 227 223 223 205 212 230 223 220 221 233 248 250 260 263 263 247 240 245 254 265 275 278 279 283 286 291 297 294 283 283 281 276 280 297 302 299 331 339 332 300
223 220 220 223 226 223 224 222 224 224 225 225 232 226 214 213 214 223 237 238 255 252 250 236 222 232 246 260 273 272 272 280 285 291 297 294 285 279 279 277 276 288 296 308 303 328 322 327 332
216 217 221 219 221 221 218 220 223 227 227 225 230 224 223 211 214 229 237 241 247 232 226 238 243 243 259 268 262 264 273 280 288 293 288 278 269 278 281 270 273 285 298 314 314 323 324 316 344
228 213 221 216 215 214 215 216 222 221 218 214 205 206 200 207 222 232 234 236 226 234 237 240 245 255 259 256 264 272 281 288 285 273 283 260 260 283 255 268 287 298 303 317 319 319 315 302 307
Height
5865 5866 5869 5871 5874 5874 5872 5873 5875 5876 5878 5877 5878 5878 5880 5884 5885 5885 5885 5886 5886 5889 5889 5888 5885 5882 5879 5878 5876 5874 5872 5869 5867 5866 5864 5861 5859 5856 5853 5851 5849 5847 5846 5844 5843 5842 5840 5840 5838
5861 5863 5865 5866 5870 5871 5870 5872 5874 5872 5874 5874 5874 5875 5877 5880 5880 5880 5881 5883 5883 5885 5886 5886 5883 5880 5877 5875 5873 5871 5869 5868 5866 5864 5861 5859 5857 5854 5852 5849 5846 5844 5842 5840 5838 5837 5835 5833 5832
5857 5859 5861 5863 5866 5868 5868 5870 5872 5871 5872 5873 5873 5874 5874 5877 5878 5878 5877 5879 5879 5881 5883 5883 5881 5877 5875 5873 5871 5868 5866 5865 5863 5861 5858 5856 5853 5850 5848 5845 5843 5842 5839 5836 5834 5831 5830 5829 5828
5851 5855 5857 5859 5864 5866 5866 5869 5868 5868 5869 5869 5871 5874 5874 5876 5877 5876 5875 5875 5876 5878 5880 5880 5877 5874 5873 5870 5868 5864 5861 5860 5859 5858 5855 5852 5849 5846 5843 5841 5840 5838 5836 5833 5831 5827 5825 5824 5823
5846 5850 5851 5857 5860 5863 5862 5864 5865 5865 5866 5867 5867 5869 5872 5873 5874 5873 5873 5874 5874 5875 5877 5876 5873 5871 5870 5868 5865 5861 5856 5855 5853 5852 5850 5845 5842 5840 5838 5836 5834 5833 5831 5830 5827 5825 5822 5820 5818
5841 5844 5846 5852 5855 5857 5857 5859 5860 5860 5862 5863 5864 5866 5869 5869 5871 5869 5869 5870 5871 5872 5873 5870 5869 5867 5868 5865 5862 5858 5854 5850 5848 5846 5844 5840 5837 5834 5831 5830 5829 5827 5826 5824 5822 5820 5818 5816 5813
5833 5836 5841 5846 5848 5852 5853 5853 5855 5855 5857 5858 5861 5863 5864 5863 5864 5865 5868 5868 5867 5867 5866 5864 5864 5862 5862 5861 5858 5854 5850 5846 5843 5841 5839 5836 5834 5830 5828 5827 5826 5823 5820 5818 5816 5815 5814 5812 5809
5825 5827 5832 5838 5842 5846 5847 5847 5848 5849 5852 5854 5855 5858 5860 5859 5857 5858 5860 5860 5859 5858 5860 5859 5859 5857 5854 5854 5851 5851 5848 5843 5840 5837 5836 5833 5830 5827 5825 5823 5820 5817 5815 5813 5811 5810 5808 5807 5804
5816 5816 5823 5833 5836 5840 5842 5843 5841 5842 5846 5848 5850 5852 5854 5854 5853 5854 5853 5853 5851 5850 5850 5849 5848 5848 5846 5846 5845 5843 5844 5840 5837 5833 5831 5829 5826 5823 5820 5818 5815 5813 5810 5808 5806 5804 5802 5801 5799
5806 5807 5819 5829 5828 5832 5835 5837 5837 5839 5839 5842 5844 5847 5847 5846 5847 5849 5850 5848 5846 5845 5844 5843 5842 5842 5840 5839 5838 5835 5835 5834 5832 5829 5826 5824 5822 5819 5816 5813 5810 5807 5805 5803 5801 5798 5797 5795 5793
5797 5800 5815 5820 5819 5820 5821 5825 5829 5830 5832 5837 5840 5841 5840 5840 5842 5844 5843 5843 5843 5841 5841 5839 5837 5835 5835 5832 5831 5829 5828 5827 5826 5824 5820 5819 5816 5813 5810 5807 5805 5802 5799 5797 5795 5793 5792 5790 5787
5786 5793 5802 5811 5809 5811 5813 5817 5821 5823 5828 5833 5833 5835 5835 5835 5839 5838 5835 5835 5836 5836 5837 5833 5831 5829 5828 5826 5825 5823 5822 5821 5819 5817 5815 5813 5810 5806 5805 5801 5798 5796 5794 5792 5789 5787 5786 5784 5781
5775 5784 5788 5797 5796 5800 5800 5805 5810 5812 5821 5827 5828 5827 5830 5833 5833 5831 5830 5831 5831 5829 5828 5826 5824 5823 5821 5820 5819 5816 5817 5815 5813 5811 5809 5806 5804 5801 5798 5795 5793 5790 5788 5786 5783 5781 5780 5777 5774
5767 5770 5774 5780 5784 5785 5788 5795 5794 5804 5814 5818 5819 5825 5826 5826 5826 5826 5826 5825 5825 5824 5822 5818 5817 5814 5814 5814 5811 5810 5810 5807 5806 5803 5801 5799 5798 5796 5791 5790 5787 5785 5781 5779 5777 5775 5772 5769 5766
5750 5753 5756 5764 5774 5777 5779 5778 5783 5797 5802 5804 5809 5811 5815 5817 5817 5817 5818 5817 5819 5817 5813 5812 5811 5807 5807 5806 5804 5803 5802 5800 5798 5797 5794 5793 5792 5790 5785 5784 5781 5778 5776 5773 5770 5768 5764 5761 5758
5735 5739 5742 5754 5760 5764 5765 5767 5787 5792 5789 5792 5797 5798 5800 5803 5804 5806 5807 5808 5809 5806 5804 5804 5802 5801 5800 5799 5796 5795 5794 5792 5792 5790 5788 5786 5785 5782 5779 5777 5775 5772 5768 5765 5764 5759 5755 5752 5749
5719 5726 5732 5739 5746 5747 5747 5758 5769 5778 5778 5781 5785 5788 5789 5790 5793 5797 5799 5798 5797 5796 5795 5794 5794 5794 5793 5790 5788 5788 5787 5786 5784 5783 5780 5778 5777 5776 5773 5771 5768 5765 5762 5760 5754 5750 5747 5743 5740
5713 5715 5718 5720 5726 5729 5734 5746 5755 5765 5765 5767 5771 5775 5778 5782 5785 5787 5787 5788 5788 5788 5788 5787 5788 5787 5785 5782 5782 5781 5780 5779 5777 5775 5773 5772 5771 5769 5766 5764 5761 5757 5755 5750 5747 5743 5739 5735 5731
5693 5695 5701 5707 5712 5720 5727 5731 5743 5746 5753 5755 5763 5767 5770 5772 5776 5778 5780 5779 5781 5781 5780 5780 5780 5779 5777 5776 5775 5775 5772 5771 5770 5768 5767 5766 5764 5763 5761 5758 5755 5752 5747 5744 5740 5736 5731 5728 5724
5674 5678 5687 5694 5700 5704 5716 5720 5730 5735 5741 5748 5752 5757 5760 5762 5765 5767 5767 5769 5772 5773 5773 5772 5771 5770 5769 5769 5769 5766 5764 5762 5761 5761 5761 5759 5757 5757 5755 5752 5748 5745 5742 5737 5733 5728 5724 5721 5717
5658 5663 5674 5681 5687 5697 5702 5703 5718 5729 5732 5739 5744 5747 5752 5755 5757 5757 5757 5759 5761 5762 5764 5764 5762 5762 5763 5762 5760 5757 5756 5755 5755 5755 5754 5753 5752 5750 5748 5745 5742 5738 5734 5730 5726 5722 5719 5714 5710
5639 5650 5663 5667 5677 5685 5692 5688 5705 5722 5727 5731 5735 5740 5744 5744 5746 5748 5749 5750 5753 5755 5755 5756 5756 5756 5755 5754 5753 5752 5750 5750 5749 5749 5748 5747 5745 5744 5741 5738 5734 5731 5728 5724 5720 5717 5712 5709 5705
5629 5637 5649 5654 5664 5671 5683 5680 5706 5714 5718 5725 5730 5732 5732 5734 5735 5738 5740 5743 5747 5748 5748 5749 5750 5748 5747 5747 5747 5745 5745 5744 5744 5743 5743 5740 5738 5736 5733 5731 5728 5725 5722 5720 5716 5712 5708 5704 5701
5613 5620 5634 5641 5650 5651 5677 5675 5695 5708 5714 5719 5719 5722 5724 5725 5728 5733 5737 5739 5739 5740 5743 5743 5742 5742 5742 5741 5740 5740 5740 5739 5739 5738 5735 5734 5733 5730 5728 5725 5722 5720 5718 5715 5712 5708 5704 5700 5697
5595 5605 5619 5627 5630 5654 5661 5667 5692 5701 5702 5706 5710 5712 5716 5718 5724 5728 5730 5732 5734 5736 5737 5737 5736 5736 5736 5736 5736 5735 5734 5734 5733 5733 5731 5729 5727 5725 5722 5720 5718 5716 5713 5712 5709 5704 5700 5697 5694
5590 5597 5607 5615 5628 5646 5653 5664 5683 5691 5697 5697 5701 5705 5709 5713 5718 5722 5725 5726 5728 5730 5731 5731 5731 5730 5731 5731 5730 5729 5729 5729 5728 5728 5726 5724 5722 5719 5717 5715 5713 5712 5710 5708 5704 5701 5697 5693 5691
5582 5587 5608 5607 5615 5638 5644 5665 5674 5680 5691 5695 5696 5698 5702 5707 5712 5716 5717 5720 5723 5724 5724 5723 5723 5725 5726 5725 5725 5725 5724 5724 5723 5722 5720 5718 5716 5714 5713 5711 5710 5709 5707 5705 5701 5698 5695 5690 5689
5575 5585 5589 5595 5612 5630 5643 5655 5662 5670 5678 5684 5690 5696 5697 5703 5707 5709 5712 5716 5718 5718 5718 5719 5719 5720 5720 5721 5721 5721 5720 5719 5718 5717 5714 5713 5711 5710 5709 5708 5707 5706 5704 5702 5699 5696 5692 5690 5687
5569 5573 5580 5592 5605 5620 5635 5646 5652 5660 5670 5678 5683 5690 5696 5699 5702 5705 5709 5712 5714 5714 5715 5716 5717 5716 5717 5717 5718 5717 5716 5716 5714 5712 5710 5709 5708 5706 5705 5705 5705 5703 5701 5699 5696 5693 5690 5687 5685
5564 5569 5573 5580 5598 5610 5622 5636 5641 5652 5662 5670 5676 5685 5690 5694 5698 5702 5706 5707 5709 5710 5710 5712 5713 5713 5714 5714 5715 5714 5713 5711 5709 5708 5707 5706 5705 5704 5704 5704 5702 5700 5699 5697 5694 5691 5689 5686 5683